2023/06/01 00:00:00, 0.0,13.0
2023/06/01 00:10:00, 0.0,12.7
2023/06/01 00:20:00, 0.0,12.7
2023/06/01 00:30:00, 0.0,12.7
2023/06/01 00:40:00, 0.0,12.8
2023/06/01 00:50:00, 0.0,12.3
2023/06/01 01:00:00, 0.0,12.8
2023/06/01 01:10:00, 0.0,12.3
2023/06/01 01:20:00, 0.0,12.6
2023/06/01 01:30:00, 0.0,12.3
2023/06/01 01:40:00, 0.0,12.3
2023/06/01 01:50:00, 0.0,12.3
2023/06/01 02:00:00, 0.0,12.8
2023/06/01 02:10:00, 0.0,12.2
2023/06/01 02:20:00, 0.0,12.2
2023/06/01 02:30:00, 0.0,12.2
2023/06/01 02:40:00, 0.0,12.2
2023/06/01 02:50:00, 0.0,12.2
2023/06/01 03:00:00, 0.0,12.2
2023/06/01 03:10:00, 0.0,12.4
2023/06/01 03:20:00, 0.0,12.5
2023/06/01 03:30:00, 0.0,12.6
2023/06/01 03:40:00, 0.0,12.8
2023/06/01 03:50:00, 0.0,12.5
2023/06/01 04:00:00, 0.0,12.7
2023/06/01 04:10:00, 0.0,12.7
2023/06/01 04:20:00, 0.0,12.8
2023/06/01 04:30:00, 0.0,12.4
2023/06/01 04:40:00, 0.0,12.4
2023/06/01 04:50:00, 0.0,12.3
2023/06/01 05:00:00, 0.0,12.4
2023/06/01 05:10:00, 0.0,12.5
2023/06/01 05:20:00, 0.0,12.9
2023/06/01 05:30:00, 0.0,13.0
2023/06/01 05:40:00, 0.0,13.2
2023/06/01 05:50:00, 0.0,13.6
2023/06/01 06:00:00, 0.1,13.8
2023/06/01 06:10:00, 0.1,14.6
2023/06/01 06:20:00, 0.0,14.5
2023/06/01 06:30:00, 0.1,15.2
2023/06/01 06:40:00, 0.1,15.6
2023/06/01 06:50:00, 0.1,16.4
2023/06/01 07:00:00, 0.2,15.9
2023/06/01 07:10:00, 0.1,16.9
2023/06/01 07:20:00, 0.2,17.3
2023/06/01 07:30:00, 0.3,17.7
2023/06/01 07:40:00, 0.3,17.9
2023/06/01 07:50:00, 0.3,18.4
2023/06/01 08:00:00, 0.4,19.4
2023/06/01 08:10:00, 0.4,20.0
2023/06/01 08:20:00, 0.3,20.6
2023/06/01 08:30:00, 0.3,21.8
2023/06/01 08:40:00, 0.1,21.2
2023/06/01 08:50:00, 0.2,21.0
2023/06/01 09:00:00, 0.1,21.5
2023/06/01 09:10:00, 0.2,22.1
2023/06/01 09:20:00, 0.3,22.6
2023/06/01 09:30:00, 0.4,22.5
2023/06/01 09:40:00, 0.3,23.1
2023/06/01 09:50:00, 0.3,23.5
2023/06/01 10:00:00, 0.3,23.5
2023/06/01 10:10:00, 0.4,23.8
2023/06/01 10:20:00, 0.5,24.0
2023/06/01 10:30:00, 0.4,24.2
2023/06/01 10:40:00, 0.4,24.6
2023/06/01 10:50:00, 0.5,24.0
2023/06/01 11:00:00, 0.4,24.0
2023/06/01 11:10:00, 0.4,23.6
2023/06/01 11:20:00, 0.4,23.9
2023/06/01 11:30:00, 0.5,24.7
2023/06/01 11:40:00, 0.4,25.0
2023/06/01 11:50:00, 0.2,25.1
2023/06/01 12:00:00, 0.4,25.2
2023/06/01 12:10:00, 0.2,24.9
2023/06/01 12:20:00, 0.3,25.8
2023/06/01 12:30:00, 0.5,26.2
2023/06/01 12:40:00, 0.1,25.9
2023/06/01 12:50:00, 0.3,26.6
2023/06/01 13:00:00, 0.3,27.3
2023/06/01 13:10:00, 0.1,27.4
2023/06/01 13:20:00, 0.0,26.8
2023/06/01 13:30:00, 0.0,26.5
2023/06/01 13:40:00, 0.0,27.0
2023/06/01 13:50:00, 0.0,29.1
2023/06/01 14:00:00, 0.0,28.9
2023/06/01 14:10:00, 0.0,27.7
2023/06/01 14:20:00, 0.0,28.6
2023/06/01 14:30:00, 0.0,28.1
2023/06/01 14:40:00, 0.0,26.9
2023/06/01 14:50:00, 0.0,26.0
2023/06/01 15:00:00, 0.0,26.3
2023/06/01 15:10:00, 0.0,26.2
2023/06/01 15:20:00, 0.0,25.8
2023/06/01 15:30:00, 0.0,25.1
2023/06/01 15:40:00, 0.0,24.7
2023/06/01 15:50:00, 0.0,24.2
2023/06/01 16:00:00, 0.0,23.5
2023/06/01 16:10:00, 0.0,21.8
2023/06/01 16:20:00, 0.0,21.2
2023/06/01 16:30:00, 0.0,20.9
2023/06/01 16:40:00, 0.0,20.2
2023/06/01 16:50:00, 0.0,20.3
2023/06/01 17:00:00, 0.0,20.3
2023/06/01 17:10:00, 0.0,20.2
2023/06/01 17:20:00, 0.0,20.1
2023/06/01 17:30:00, 0.0,20.1
2023/06/01 17:40:00, 0.0,19.9
2023/06/01 17:50:00, 0.0,19.9
2023/06/01 18:00:00, 0.0,19.9
2023/06/01 18:10:00, 0.0,20.0
2023/06/01 18:20:00, 0.0,19.8
2023/06/01 18:30:00, 0.0,19.7
2023/06/01 18:40:00, 0.0,19.8
2023/06/01 18:50:00, 0.0,19.7
2023/06/01 19:00:00, 0.0,19.6
2023/06/01 19:10:00, 0.0,19.6
2023/06/01 19:20:00, 0.0,19.6
2023/06/01 19:30:00, 0.0,19.4
2023/06/01 19:40:00, 0.0,19.5
2023/06/01 19:50:00, 0.0,19.2
2023/06/01 20:00:00, 0.0,19.1
2023/06/01 20:10:00, 0.0,19.1
2023/06/01 20:20:00, 0.0,18.9
2023/06/01 20:30:00, 0.0,18.9
2023/06/01 20:40:00, 0.0,19.0
2023/06/01 20:50:00, 0.0,19.0
2023/06/01 21:00:00, 0.0,19.0
2023/06/01 21:10:00, 0.0,19.0
2023/06/01 21:20:00, 0.0,18.9
2023/06/01 21:30:00, 0.0,18.8
2023/06/01 21:40:00, 0.0,19.1
2023/06/01 21:50:00, 0.0,19.0
2023/06/01 22:00:00, 0.0,19.0
2023/06/01 22:10:00, 0.0,19.0
2023/06/01 22:20:00, 0.0,18.9
2023/06/01 22:30:00, 0.0,18.9
2023/06/01 22:40:00, 0.0,18.9
2023/06/01 22:50:00, 0.0,18.6
2023/06/01 23:00:00, 0.0,18.8
2023/06/01 23:10:00, 0.0,18.8
2023/06/01 23:20:00, 0.0,19.0
2023/06/01 23:30:00, 0.0,18.8
2023/06/01 23:40:00, 0.0,18.8
2023/06/01 23:50:00, 0.0,18.7
